User: anonymous   Login
Location: Unspecified
(0.0000°N, 0.0000°E)
Time: 10:59:55
(UTC+01:00)
Language:

IUS-9 SRM-1 - Orbit

View from above orbital plane
View from above orbital plane
View from above satellite
View from above satellite

Ground track
Ground track

The orbit data is extracted from the following two-line orbital elements,

1 19884U 89021C   18050.39185145 +.00010405 +00000-0 +46013-3 0  9997
2 19884 026.3381 163.2715 5937755 282.7498 020.3810 04.20052005344318
Epoch (UTC): 19 February 2018 09:24:15
Eccentricity: 0.5937755
inclination: 26.3381°
perigee height: 213 km
apogee height: 19481 km
right ascension of ascending node: 163.2715°
argument of perigee: 282.7498°
revolutions per day: 4.20052005
mean anomaly at epoch: 20.3810°
orbit number at epoch: 34431

The dashed part of the orbit path shows where the satellite is in the earth's shadow,  

DLR